2018-046G

Last updated on Mon Aug 13 2018 00:15:07 GMT+0000 (Coordinated Universal Time)

1 43560U 18046G 18223.89845545 .00001026 00000-0 50182-4 0 9990 2 43560 51.6435 106.3055 0009475 60.2855 299.9070 15.27761957 4038
UTC large
Height (km)
Speed (km/s)
/
Latitude / Longitude
Inclination (degrees)
Orbital Period (minutes)
Azimuth
Elevation
Range (km)
Doppler Factor

Next 0 passes for location: London (51.5072 / 0.1276)

Sorry there are no passes over London.